Regional Weather Roundup
Issued by NWS

Home | Current Version | Previous Version | Text Only | Print | Product List | Glossary Off
Versions: 1 2 3 4 5 6 7 8 9 10 11 12 13 14 15 16 17 18 19 20 21 22 23 24 25 26 27 28 29 30 31 32 33 34 35 36 37 38 39 40 41 42 43 44 45 46 47 48 49 50

000
ASUS45 KBOU 270107
RWRCO

WEATHER ROUNDUP FOR COLORADO
NATIONAL WEATHER SERVICE DENVER/BOULDER CO
600 PM MST WED NOV 26 2014

NOTE: "FAIR" INDICATES FEW OR NO CLOUDS BELOW 12000 FEET WITH NO
SIGNIFICANT WEATHER AND/OR OBSTRUCTIONS TO VISIBILITY.

COZ001>005-013-030-031-270200-
...NORTHWEST COLORADO...

CITY           SKY/WX    TMP DP  RH WIND       PRES   REMARKS
CRAIG          PTCLDY    37  27  67 W6        30.34R
HAYDEN         PTCLDY    39  27  60 CALM      30.34S
MEEKER         CLEAR     34  27  75 E3        30.38R
MOUNT WERNER   NOT AVBL
STEAMBOAT SPGS CLOUDY    37  31  80 SE6       30.34S
WALDEN         PTCLDY    34  25  69 SW16      30.30S WCI  23
$$

COZ006>008-011-270200-
...WEST CENTRAL VALLEYS...

CITY           SKY/WX    TMP DP  RH WIND       PRES   REMARKS
GRAND JUNCTION CLEAR     35  23  61 CALM      30.38R
MONTROSE       CLEAR     42  25  50 CALM      30.41R
EAGLE          CLEAR     37  28  70 S5        30.41R
RIFLE          CLEAR     33  25  72 E7        30.40R WCI  27
DELTA          CLEAR     41  25  53 NE3       30.39R
NUCLA          CLEAR     50  25  37 CALM      30.44R
$$

COZ017>023-064>068-270200-
...SOUTHWEST COLORADO...

CITY           SKY/WX    TMP DP  RH WIND       PRES   REMARKS
DURANGO        CLEAR     36  21  54 NE6       30.36R
CORTEZ         CLEAR     39  21  48 SE6       30.40R
PAGOSA SPRINGS CLEAR     34  19  56 CALM      30.41R
TELLURIDE      PTCLDY    33  26  77 E7        30.48S WCI  26
WOLF CREEK PAS PTCLDY    30  12  47 MISG      30.51R
$$

COZ009-010-012-014-032>034-037-058>063-270200-
...CENTRAL COLORADO...

CITY           SKY/WX    TMP DP  RH WIND       PRES   REMARKS
ASPEN          PTCLDY    28  22  78 SW6       30.41R WCI  22
BUENA VISTA    PTCLDY    41  20  43 N12       30.32R
COPPER MTN     CLOUDY    27  21  80 W32G38    30.41F WCI  10
BERTHOUD PASS  NOT AVBL
COTTONWOOD PAS PTCLDY    39  18  41 NW8G22    30.35R
GUNNISON       CLEAR     39  23  52 N6        30.42R
KREMMLING      CLEAR     36  27  69 W8        30.36R
LEADVILLE      PTCLDY    27  20  75 CALM      30.40R
MONARCH PASS     N/A     23  21  93 MISG      30.47S
SALIDA         PTCLDY    45  22  39 SW13G22   30.38R
SUNLIGHT       PTCLDY   N/A N/A N/A CALM      30.48R
WILKERSON PASS PTCLDY    30  16  55 W8G26     30.39S WCI  23
$$

COZ069>075-270200-
...SAN LUIS VALLEY/SANGRE DE CRISTO MOUNTAINS...

CITY           SKY/WX    TMP DP  RH WIND       PRES   REMARKS
ALAMOSA        PTCLDY    35  19  52 CALM      30.37R
LA VETA PASS   PTCLDY    32  19  59 S16G26    30.37R WCI  21
SAGUACHE       PTCLDY    36  23  60 NW8       30.38R
$$

COZ035-036-038>040-270200-
...NORTHERN COLORADO FRONT RANGE...

CITY           SKY/WX    TMP DP  RH WIND       PRES   REMARKS
DENVER INTL AP PTCLDY    27  22  81 SE9       30.22R WCI  18
DMNS CITY PARK   N/A     32  24  72 NW2       30.23R
AURORA         PTCLDY    29  25  83 SE8       30.22R WCI  21
FRONT RANGE AP NOT AVBL
ERIE MUNI ARPT CLEAR     30  24  78 CALM      30.24R
BOULDER MUN AP CLEAR     32  25  74 NW5       30.24R WCI  27
CENTENNIAL     PTCLDY    33  24  69 SW6       30.20R WCI  28
BROOMFIELD     PTCLDY    32  25  74 NE7       30.23R WCI  26
FORT COLLINS   CLEAR     30  21  69 E9        30.25R WCI  22
LONGMONT       CLEAR     33  25  75 CALM      30.26R
$$

COZ041-046-047-076>085-087-088-270200-
...PIKES PEAK/PALMER DIVIDE AND SOUTHERN FOOTHILLS...

CITY           SKY/WX    TMP DP  RH WIND       PRES   REMARKS
COLO. SPRINGS  MOCLDY    31  23  72 N3        30.27R
A. F. ACADEMY  PTCLDY    27  22  81 N2        30.26R
ELLICOTT       NOT AVBL
FALCON         NOT AVBL
FORT CARSON    CLEAR     29  24  78 VRB2      30.26R
LIMON          CLEAR     29  21  72 SE8       30.25R WCI  21
MONUMENT HILL  CLEAR     28  25  86 S8        30.23R WCI  20
TRINIDAD       CLEAR     35  29  78 W6        30.24R WCI  30
$$

COZ042>045-048>051-090-091-270200-
...NORTHEAST COLORADO...

CITY           SKY/WX    TMP DP  RH WIND       PRES   REMARKS
GREELEY ARPT   CLEAR     28  18  64 E6        30.26R WCI  22
AKRON          CLEAR     24  21  88 SE9       30.25R WCI  14
BURLINGTON     CLEAR     26  21  81 E6        30.30R WCI  19
WRAY           MOCLDY    30  26  85 CALM      30.31S
STERLING       PTCLDY    30  28  93 CALM      30.28R
HOLYOKE        MOCLDY    34  30  86 CALM      30.30S
FORT MORGAN    CLEAR     25  22  89 E6        30.27R WCI  18
$$

COZ086-089-092>099-270200-
...SOUTHEAST COLORADO...

CITY           SKY/WX    TMP DP  RH WIND       PRES   REMARKS
PUEBLO         CLEAR     34  24  67 E7        30.26R WCI  28
LA JUNTA       CLEAR     34  22  61 E7        30.28R WCI  28
LAMAR          CLEAR     32  20  61 SE9       30.28S WCI  24
SPRINGFIELD      N/A     31  20  63 E7        30.30R WCI  24
$$


USA.gov is the U.S. government's official web portal to all federal, state and local government web resources and services.